Погода в Солонке

Россия / Волгоградская область     50°11′56″N   41°27′56″E
темп.,
°C
ветер,
м/с
пор.,
м/с
влажн.,
%
обл.,
%
осадки,
мм/ч
давл.,
гПа
погр.,
м
11 мая, вт
вт1100:00+7в4995100 0.1 1012528
03:00+6вюв5995100 2.3 1012828
06:00+6в6983100 0.1 1014976
09:00+7в81388100 0.1 10161019
12:00+7в91587100 0.4 10181260
15:00+7вюв91389100 0.7 10201212
18:00+7вюв61491100 0.3 1022996
21:00+6в51292100 0.3 1023322
12 мая, ср
ср1200:00+7всв71586100 0.0 1023369
03:00+7в41290100 0.0 1023282
06:00+8всв4984100 0.1 1022274
09:00+12всв677386 0.1 1020516
12:00+16вюв67595 0.4 10191458
15:00+15вюв61060100 0.8 1018720
18:00+16юв6106325 0.1 1018734
21:00+11ююв337799 0.1 101923
13 мая, чт
чт1300:00+10в117936 0.0 101810
03:00+10св3380100 0.0 101836
06:00+11св348280 0.0 1018116
09:00+16всв337149 0.0 1017435
12:00+20вюв22536 0.0 10171277
15:00+22юв23475 0.0 10161671
18:00+21юв346012 0.0 1016173
21:00+16в3370100 0.0 101618
14 мая, пт
пт1400:00+16в3470100 0.0 101646
03:00+15в4679100 0.0 101693
06:00+15в498465 0.0 1016183
09:00+21вюв696550 0.0 1016524
12:00+25юв67515 0.0 10151091
15:00+27юв674737 0.0 10151456
18:00+25ююв5105860 0.0 1014347
21:00+19вюв46715 0.0 101478
15 мая, сб
сб1500:00+18юв515620 0.0 1013305
03:00+16юв615510 0.0 1013334
06:00+15юв6155786 0.0 1014332
09:00+20ююв61050100 0.0 1013492
12:00+24ю71144100 0.0 10131027
15:00+25ю7104531 0.0 10131358
18:00+24ю596072 0.0 1012437
21:00+20ю5127516 0.6 1011309